Schneifelwetter: Wetterstation Hallschlag, 537 m . NN
Wetterdaten: Freitag, 03.12.2010
Datum Zeit Temp. A. Feuchte A. Luftdruck Regen Wind Richtung Richtung Sonnenschein Helligkeit T Regen Taupunkt Windchill
03.12.2010 00:10 -10,5 C 94 % 1005 hPa 0,0 l/m 0,0 km/h (0 Bft) N 5 0 min 0 lux 0,00 min -11,3 C -10,5 C
03.12.2010 00:25 -10,7 C 93 % 1005 hPa 0,0 l/m 3,6 km/h (1 Bft) NW45 320 0 min 0 lux 0,00 min -11,6 C -10,7 C
03.12.2010 00:40 -11,1 C 93 % 1005 hPa 0,0 l/m 0,6 km/h (0 Bft) W 270 0 min 0 lux 0,00 min -12,0 C -11,1 C
03.12.2010 00:55 -11,5 C 93 % 1005 hPa 0,0 l/m 0,0 km/h (0 Bft) W 270 0 min 0 lux 0,00 min -12,4 C -11,5 C
03.12.2010 01:10 -11,5 C 94 % 1005 hPa 0,0 l/m 0,0 km/h (0 Bft) W 270 0 min 0 lux 0,00 min -12,3 C -11,5 C
03.12.2010 01:25 -11,4 C 94 % 1005 hPa 0,0 l/m 0,0 km/h (0 Bft) W 270 0 min 0 lux 0,00 min -12,2 C -11,4 C
03.12.2010 01:40 -11,5 C 94 % 1005 hPa 0,0 l/m 0,0 km/h (0 Bft) W 270 0 min 0 lux 0,00 min -12,3 C -11,5 C
03.12.2010 01:55 -11,5 C 94 % 1005 hPa 0,0 l/m 2,5 km/h (1 Bft) W 270 0 min 0 lux 0,00 min -12,3 C -11,5 C
03.12.2010 02:10 -11,2 C 94 % 1005 hPa 0,0 l/m 0,0 km/h (0 Bft) W 270 0 min 0 lux 0,00 min -12,0 C -11,2 C
03.12.2010 02:25 -11,2 C 94 % 1005 hPa 0,0 l/m 0,0 km/h (0 Bft) W 270 0 min 0 lux 0,00 min -12,0 C -11,2 C
03.12.2010 02:40 -11,2 C 94 % 1005 hPa 0,0 l/m 0,0 km/h (0 Bft) W 270 0 min 0 lux 0,00 min -12,0 C -11,2 C
03.12.2010 02:55 -11,2 C 94 % 1005 hPa 0,0 l/m 4,2 km/h (1 Bft) N45 350 0 min 0 lux 0,00 min -12,0 C -11,2 C
03.12.2010 03:10 -11,2 C 94 % 1005 hPa 0,0 l/m 0,0 km/h (0 Bft) N-NO 15 0 min 0 lux 0,00 min -12,0 C -11,2 C
03.12.2010 03:25 -11,2 C 94 % 1005 hPa 0,0 l/m 0,0 km/h (0 Bft) N-NO 15 0 min 0 lux 0,00 min -12,0 C -11,2 C
03.12.2010 03:40 -11,0 C 94 % 1005 hPa 0,0 l/m 0,0 km/h (0 Bft) N-NO 15 0 min 0 lux 0,00 min -11,8 C -11,0 C
03.12.2010 03:55 -11,0 C 94 % 1005 hPa 0,0 l/m 0,0 km/h (0 Bft) N-NO 15 0 min 0 lux 0,00 min -11,8 C -11,0 C
03.12.2010 04:10 -11,0 C 94 % 1005 hPa 0,0 l/m 0,0 km/h (0 Bft) N-NO 15 0 min 0 lux 0,00 min -11,8 C -11,0 C
03.12.2010 04:25 -11,1 C 94 % 1005 hPa 0,0 l/m 0,0 km/h (0 Bft) N-NO 15 0 min 0 lux 0,00 min -11,9 C -11,1 C
03.12.2010 04:40 -10,8 C 94 % 1005 hPa 0,0 l/m 0,0 km/h (0 Bft) N-NO 15 0 min 0 lux 0,00 min -11,6 C -10,8 C
03.12.2010 04:55 -10,6 C 95 % 1005 hPa 0,0 l/m 0,0 km/h (0 Bft) N-NO 15 0 min 0 lux 0,00 min -11,2 C -10,6 C
03.12.2010 05:10 -10,4 C 94 % 1005 hPa 0,0 l/m 0,0 km/h (0 Bft) N-NO 15 0 min 0 lux 0,00 min -11,2 C -10,4 C
03.12.2010 05:25 -10,4 C 94 % 1005 hPa 0,0 l/m 4,1 km/h (1 Bft) N-NO 15 0 min 0 lux 0,00 min -11,2 C -10,4 C
03.12.2010 05:40 -10,2 C 94 % 1005 hPa 0,0 l/m 0,0 km/h (0 Bft) N 350 0 min 0 lux 0,00 min -11,0 C -10,2 C
03.12.2010 05:55 -10,2 C 94 % 1005 hPa 0,0 l/m 0,0 km/h (0 Bft) N-NW 345 0 min 0 lux 0,00 min -11,0 C -10,2 C
03.12.2010 06:10 -10,0 C 94 % 1005 hPa 0,0 l/m 2,9 km/h (1 Bft) NW22.5 325 0 min 0 lux 0,00 min -10,8 C -10,0 C
03.12.2010 06:25 -9,9 C 95 % 1005 hPa 0,0 l/m 0,0 km/h (0 Bft) NW 310 0 min 0 lux 0,00 min -10,5 C -9,9 C
03.12.2010 06:40 -9,9 C 95 % 1005 hPa 0,0 l/m 0,0 km/h (0 Bft) NW 310 0 min 0 lux 0,00 min -10,5 C -9,9 C
03.12.2010 06:55 -9,9 C 94 % 1005 hPa 0,0 l/m 0,0 km/h (0 Bft) NW 310 0 min 0 lux 0,00 min -10,7 C -9,9 C
03.12.2010 07:10 -9,8 C 94 % 1005 hPa 0,0 l/m 0,0 km/h (0 Bft) NW 310 0 min 0 lux 0,00 min -10,6 C -9,8 C
03.12.2010 07:25 -9,9 C 94 % 1005 hPa 0,0 l/m 0,0 km/h (0 Bft) NW 310 0 min 0 lux 0,00 min -10,7 C -9,9 C
03.12.2010 07:40 -9,9 C 94 % 1005 hPa 0,0 l/m 0,0 km/h (0 Bft) NW 310 0 min 0 lux 0,00 min -10,7 C -9,9 C
03.12.2010 08:02 -9,9 C 94 % 1005 hPa 0,0 l/m 0,0 km/h (0 Bft) NW 310 0 min 84 lux 0,00 min -10,7 C -9,9 C
03.12.2010 08:17 -9,9 C 94 % 1005 hPa 0,0 l/m 0,0 km/h (0 Bft) NW 310 0 min 465 lux 0,00 min -10,7 C -9,9 C
03.12.2010 08:31 -9,8 C 94 % 1005 hPa 0,0 l/m 0,0 km/h (0 Bft) NW 310 0 min 1,62 klux 0,00 min -10,6 C -9,8 C
03.12.2010 08:46 -9,6 C 94 % 1005 hPa 0,0 l/m 3,1 km/h (1 Bft) N-NW 345 0 min 3,40 klux 0,00 min -10,4 C -9,6 C
03.12.2010 09:01 -9,6 C 94 % 1006 hPa 0,0 l/m 0,0 km/h (0 Bft) N-NW 345 0 min 5,53 klux 0,00 min -10,4 C -9,6 C
03.12.2010 09:16 -9,6 C 94 % 1006 hPa 0,0 l/m 0,0 km/h (0 Bft) N-NW 345 0 min 7,35 klux 0,00 min -10,4 C -9,6 C
03.12.2010 09:31 -9,2 C 94 % 1006 hPa 0,0 l/m 0,1 km/h (0 Bft) N-NW 345 0 min 14,8 klux 0,00 min -10,0 C -9,2 C
03.12.2010 09:47 -8,8 C 94 % 1006 hPa 0,0 l/m 3,5 km/h (1 Bft) N-NW 345 0 min 15,9 klux 0,00 min -9,6 C -8,8 C
03.12.2010 10:02 -8,5 C 94 % 1006 hPa 0,0 l/m 0,0 km/h (0 Bft) N-NW 345 0 min 14,3 klux 0,00 min -9,3 C -8,5 C
03.12.2010 10:16 -8,2 C 94 % 1006 hPa 0,0 l/m 0,0 km/h (0 Bft) N-NW 345 0 min 13,7 klux 0,00 min -9,0 C -8,2 C
03.12.2010 10:31 -7,8 C 94 % 1006 hPa 0,0 l/m 4,3 km/h (1 Bft) W 260 0 min 13,6 klux 0,00 min -8,6 C -7,8 C
03.12.2010 10:46 -7,5 C 93 % 1006 hPa 0,0 l/m 2,4 km/h (1 Bft) W 260 0 min 15,6 klux 0,00 min -8,4 C -7,5 C
03.12.2010 11:01 -7,2 C 93 % 1006 hPa 0,0 l/m 0,0 km/h (0 Bft) W 260 0 min 17,7 klux 0,00 min -8,1 C -7,2 C
03.12.2010 11:17 -6,7 C 93 % 1006 hPa 0,0 l/m 0,0 km/h (0 Bft) W 260 0 min 21,2 klux 0,00 min -7,6 C -6,7 C
03.12.2010 11:32 -6,1 C 93 % 1006 hPa 0,0 l/m 0,0 km/h (0 Bft) W 260 0 min 31,8 klux 0,00 min -7,0 C -6,1 C
03.12.2010 11:46 -5,7 C 93 % 1006 hPa 0,0 l/m 0,0 km/h (0 Bft) W 260 0 min 33,6 klux 0,00 min -6,6 C -5,7 C
03.12.2010 12:01 -5,0 C 93 % 1006 hPa 0,0 l/m 0,0 km/h (0 Bft) W 260 0 min 28,4 klux 0,00 min -6,0 C -5,0 C
03.12.2010 12:17 -4,6 C 92 % 1006 hPa 0,0 l/m 0,0 km/h (0 Bft) W 260 0 min 30,9 klux 0,00 min -5,7 C -4,6 C
03.12.2010 12:31 -4,4 C 92 % 1006 hPa 0,0 l/m 0,0 km/h (0 Bft) W 260 0 min 33,9 klux 0,00 min -5,5 C -4,4 C
03.12.2010 12:46 -4,0 C 91 % 1006 hPa 0,0 l/m 0,0 km/h (0 Bft) W 260 0 min 29,5 klux 0,00 min -5,2 C -4,0 C
03.12.2010 13:01 -3,7 C 90 % 1006 hPa 0,0 l/m 5,5 km/h (1 Bft) SW 230 0 min 35,2 klux 0,00 min -5,1 C -3,7 C
03.12.2010 13:16 -3,4 C 89 % 1006 hPa 0,0 l/m 6,0 km/h (2 Bft) SW 215 0 min 40,1 klux 0,00 min -4,9 C -3,4 C
03.12.2010 13:31 -3,4 C 88 % 1006 hPa 0,0 l/m 7,8 km/h (2 Bft) SW22.5 215 0 min 37,0 klux 0,00 min -5,1 C -5,0 C
03.12.2010 13:47 -3,4 C 87 % 1006 hPa 0,0 l/m 13,0 km/h (3 Bft) W-SW22.5 250 0 min 31,4 klux 0,00 min -5,2 C -9,7 C
03.12.2010 14:02 -3,6 C 87 % 1006 hPa 0,0 l/m 8,0 km/h (2 Bft) W-SW 245 0 min 21,6 klux 0,00 min -5,4 C -5,4 C
03.12.2010 14:16 -3,2 C 88 % 1006 hPa 0,0 l/m 12,6 km/h (3 Bft) W-SW22.5 250 0 min 36,9 klux 0,00 min -4,9 C -9,2 C
03.12.2010 14:31 -3,1 C 87 % 1006 hPa 0,0 l/m 10,6 km/h (2 Bft) W-SW 255 0 min 34,8 klux 0,00 min -4,9 C -7,4 C
03.12.2010 14:46 -3,2 C 87 % 1006 hPa 0,0 l/m 8,5 km/h (2 Bft) W-SW 245 0 min 23,4 klux 0,00 min -5,0 C -5,5 C
03.12.2010 15:01 -3,3 C 86 % 1006 hPa 0,0 l/m 7,3 km/h (2 Bft) W-SW 245 0 min 22,7 klux 0,00 min -5,3 C -4,3 C
03.12.2010 15:16 -3,5 C 86 % 1006 hPa 0,0 l/m 6,2 km/h (2 Bft) W-SW 245 0 min 18,9 klux 0,00 min -5,5 C -3,5 C
03.12.2010 15:32 -3,9 C 86 % 1006 hPa 0,0 l/m 6,5 km/h (2 Bft) W-SW 245 0 min 16,3 klux 0,00 min -5,9 C -4,0 C
03.12.2010 15:47 -4,3 C 87 % 1007 hPa 0,0 l/m 5,6 km/h (1 Bft) W-SW 250 0 min 8,47 klux 0,00 min -6,1 C -4,3 C
03.12.2010 16:01 -5,0 C 87 % 1007 hPa 0,0 l/m 0,0 km/h (0 Bft) W-SW 250 0 min 5,54 klux 0,00 min -6,8 C -5,0 C
03.12.2010 16:16 -5,8 C 87 % 1007 hPa 0,0 l/m 3,6 km/h (1 Bft) W-SW 245 0 min 3,29 klux 0,00 min -7,6 C -5,8 C
03.12.2010 16:31 -6,5 C 87 % 1007 hPa 0,0 l/m 1,8 km/h (1 Bft) W-SW 250 0 min 1,82 klux 0,00 min -8,3 C -6,5 C
03.12.2010 16:46 -7,5 C 88 % 1007 hPa 0,0 l/m 0,0 km/h (0 Bft) W-SW 250 0 min 695 lux 0,00 min -9,1 C -7,5 C
03.12.2010 17:02 -8,1 C 88 % 1007 hPa 0,0 l/m 0,0 km/h (0 Bft) W-SW 245 0 min 169 lux 0,00 min -9,7 C -8,1 C
03.12.2010 17:17 -8,7 C 89 % 1008 hPa 0,0 l/m 0,0 km/h (0 Bft) W-SW 245 0 min 27 lux 0,00 min -10,2 C -8,7 C
03.12.2010 17:31 -9,0 C 89 % 1008 hPa 0,0 l/m 2,0 km/h (1 Bft) W-SW 245 0 min 7 lux 0,00 min -10,5 C -9,0 C
03.12.2010 17:46 -9,2 C 90 % 1008 hPa 0,0 l/m 1,9 km/h (1 Bft) W-SW 245 0 min 0 lux 0,00 min -10,5 C -9,2 C
03.12.2010 18:01 -9,4 C 91 % 1008 hPa 0,0 l/m 1,0 km/h (0 Bft) W-SW 245 0 min 0 lux 0,00 min -10,6 C -9,4 C
03.12.2010 18:16 -9,7 C 91 % 1008 hPa 0,0 l/m 0,2 km/h (0 Bft) W-SW 245 0 min 0 lux 0,00 min -10,9 C -9,7 C
03.12.2010 18:31 -9,8 C 92 % 1009 hPa 0,0 l/m 0,0 km/h (0 Bft) W-SW 245 0 min 0 lux 0,00 min -10,8 C -9,8 C
03.12.2010 18:47 -9,8 C 92 % 1009 hPa 0,0 l/m 0,0 km/h (0 Bft) W-SW 245 0 min 0 lux 0,00 min -10,8 C -9,8 C
03.12.2010 19:02 -9,8 C 92 % 1009 hPa 0,0 l/m 0,0 km/h (0 Bft) W-SW 245 0 min 0 lux 0,00 min -10,8 C -9,8 C
03.12.2010 19:16 -9,7 C 93 % 1009 hPa 0,0 l/m 0,0 km/h (0 Bft) W-SW 245 0 min 0 lux 0,00 min -10,6 C -9,7 C
03.12.2010 19:31 -9,5 C 93 % 1009 hPa 0,0 l/m 1,0 km/h (0 Bft) W-SW 245 0 min 0 lux 0,00 min -10,4 C -9,5 C
03.12.2010 19:46 -9,1 C 94 % 1009 hPa 0,0 l/m 0,1 km/h (0 Bft) W-SW 245 0 min 0 lux 0,00 min -9,9 C -9,1 C
03.12.2010 20:01 -8,9 C 94 % 1010 hPa 0,0 l/m 4,8 km/h (1 Bft) W-SW 245 0 min 0 lux 0,00 min -9,7 C -8,9 C
03.12.2010 20:16 -8,6 C 94 % 1010 hPa 0,0 l/m 6,5 km/h (2 Bft) W-SW 245 0 min 0 lux 0,00 min -9,4 C -8,7 C
03.12.2010 20:32 -8,5 C 94 % 1010 hPa 0,0 l/m 7,5 km/h (2 Bft) W-SW 245 0 min 0 lux 0,00 min -9,3 C -9,9 C
03.12.2010 20:47 -8,3 C 94 % 1010 hPa 0,0 l/m 7,9 km/h (2 Bft) W-SW 250 0 min 0 lux 0,00 min -9,1 C -10,2 C
03.12.2010 21:01 -8,7 C 93 % 1010 hPa 0,0 l/m 5,6 km/h (1 Bft) W-SW 240 0 min 0 lux 0,00 min -9,6 C -8,7 C
03.12.2010 21:16 -9,4 C 93 % 1010 hPa 0,0 l/m 3,9 km/h (1 Bft) W-SW 240 0 min 0 lux 0,00 min -10,3 C -9,4 C
03.12.2010 21:31 -9,9 C 93 % 1010 hPa 0,0 l/m 6,7 km/h (2 Bft) W-SW 240 0 min 0 lux 0,00 min -10,8 C -10,3 C
03.12.2010 21:46 -10,1 C 92 % 1010 hPa 0,0 l/m 5,4 km/h (1 Bft) W-SW 240 0 min 0 lux 0,00 min -11,1 C -10,1 C
03.12.2010 22:02 -10,6 C 92 % 1010 hPa 0,0 l/m 4,3 km/h (1 Bft) W-SW 240 0 min 0 lux 0,00 min -11,6 C -10,6 C
03.12.2010 22:17 -11,0 C 92 % 1011 hPa 0,0 l/m 2,8 km/h (1 Bft) W-SW 240 0 min 0 lux 0,00 min -12,0 C -11,0 C
03.12.2010 22:31 -10,8 C 93 % 1011 hPa 0,0 l/m 5,1 km/h (1 Bft) W-SW 240 0 min 0 lux 0,00 min -11,7 C -10,8 C
03.12.2010 22:46 -10,4 C 94 % 1011 hPa 0,0 l/m 4,8 km/h (1 Bft) W-SW 240 0 min 0 lux 0,00 min -11,2 C -10,4 C
03.12.2010 23:01 -10,0 C 94 % 1011 hPa 0,0 l/m 3,1 km/h (1 Bft) W-SW 240 0 min 0 lux 0,00 min -10,8 C -10,0 C
03.12.2010 23:16 -10,0 C 94 % 1011 hPa 0,0 l/m 3,8 km/h (1 Bft) W-SW 240 0 min 0 lux 0,00 min -10,8 C -10,0 C
03.12.2010 23:31 -10,1 C 94 % 1011 hPa 0,0 l/m 5,9 km/h (2 Bft) W-SW 240 0 min 0 lux 0,00 min -10,9 C -10,1 C
03.12.2010 23:47 -10,4 C 94 % 1011 hPa 0,0 l/m 5,6 km/h (1 Bft) W-SW 240 0 min 0 lux 0,00 min -11,2 C -10,4 C
03.12.2010 23:55 -10,6 C 93 % 1011 hPa 0,0 l/m 6,6 km/h (2 Bft) W-SW 240 0 min 0 lux 0,00 min -11,5 C -10,8 C
_ Min-Zeit 00:55 15:01 00:10 - 00:10 - - - - - 00:55 00:55
Minimum _ -11,5 C 86 % 1005 hPa - 0,0 km/h (0 Bft) - - - - - -12,4 C -11,5 C
_ Max-Zeit 14:31 04:55 22:17 00:10 13:47 - - 00:10 13:16 00:10 14:16 13:16
Maximum _ -3,1 C 95 % 1011 hPa 0,0 l/m 13,0 km/h
W-SW (3 Bft)
- - 0 min 40,1 klux 0,00 min -4,9 C -3,4 C
Durchschnitt _ -8,6 C 92 % 1007 hPa #0,0 l/m 2,4 km/h (1 Bft) W-SW - #0 min. 7,00 klux #0 min. -9,7 C -8,9 C